Time,TemperatureF,DewpointF,PressureIn,WindDirection,WindDirectionDegrees,WindSpeedMPH,WindSpeedGustMPH,Humidity,HourlyPrecipIn,Conditions,Clouds,dailyrainin,SoftwareType,DateUTC
2013-01-26 00:03:00,37.0,-99.9,30.19,NW,315,2.0,4.0,0,-99.99,,,-99.99,,2013-01-26 06:03:00,
2013-01-26 00:12:00,37.0,-99.9,30.19,NW,315,1.0,3.0,0,-99.99,,,-99.99,,2013-01-26 06:12:00,
2013-01-26 00:21:00,37.0,-99.9,30.19,NW,315,1.0,3.0,0,-99.99,,,-99.99,,2013-01-26 06:21:00,
2013-01-26 00:32:00,35.0,-99.9,30.19,SW,215,0.0,1.0,0,-99.99,,,-99.99,,2013-01-26 06:32:00,
2013-01-26 00:42:00,35.0,-99.9,30.19,SW,215,1.0,1.0,0,-99.99,,,-99.99,,2013-01-26 06:42:00,
2013-01-26 00:52:00,35.0,-99.9,30.19,SW,215,1.0,1.0,0,-99.99,,,-99.99,,2013-01-26 06:52:00,
2013-01-26 01:02:00,34.0,-99.9,30.19,SW,235,0.0,1.0,0,-99.99,,,-99.99,,2013-01-26 07:02:00,
2013-01-26 01:12:00,34.0,-99.9,30.19,NW,325,1.0,3.0,0,-99.99,,,-99.99,,2013-01-26 07:12:00,
2013-01-26 01:22:00,34.0,-99.9,30.19,NW,325,1.0,3.0,0,-99.99,,,-99.99,,2013-01-26 07:22:00,
2013-01-26 01:33:00,35.0,-99.9,30.19,North,0,1.0,3.0,0,-99.99,,,-99.99,,2013-01-26 07:33:00,
2013-01-26 01:42:00,36.0,-99.9,30.19,NNW,330,3.0,4.0,0,-99.99,,,-99.99,,2013-01-26 07:42:00,
2013-01-26 01:52:00,36.0,-99.9,30.19,NNW,330,3.0,4.0,0,-99.99,,,-99.99,,2013-01-26 07:52:00,
2013-01-26 02:02:00,35.0,-99.9,30.20,North,0,1.0,3.0,0,-99.99,,,-99.99,,2013-01-26 08:02:00,
2013-01-26 02:11:00,34.0,-99.9,30.21,SSW,195,0.0,2.0,0,-99.99,,,-99.99,,2013-01-26 08:11:00,
2013-01-26 02:22:00,34.0,-99.9,30.21,SSW,195,0.0,2.0,0,-99.99,,,-99.99,,2013-01-26 08:22:00,
2013-01-26 02:32:00,36.0,-99.9,30.21,North,0,5.0,7.0,0,-99.99,,,-99.99,,2013-01-26 08:32:00,
2013-01-26 02:42:00,36.0,-99.9,30.21,NNE,25,3.0,7.0,0,-99.99,,,-99.99,,2013-01-26 08:42:00,
2013-01-26 02:54:00,36.0,-99.9,30.21,North,10,4.0,8.0,0,-99.99,,,-99.99,,2013-01-26 08:54:00,
2013-01-26 03:02:00,36.0,-99.9,30.21,North,10,4.0,8.0,0,-99.99,,,-99.99,,2013-01-26 09:02:00,
2013-01-26 03:11:00,36.0,-99.9,30.21,North,5,4.0,6.0,0,-99.99,,,-99.99,,2013-01-26 09:11:00,
2013-01-26 03:22:00,36.0,-99.9,30.21,North,5,4.0,6.0,0,-99.99,,,-99.99,,2013-01-26 09:22:00,
2013-01-26 03:32:00,35.0,-99.9,30.21,NNE,25,7.0,12.0,0,-99.99,,,-99.99,,2013-01-26 09:32:00,
2013-01-26 03:42:00,35.0,-99.9,30.21,NE,50,6.0,15.0,0,-99.99,,,-99.99,,2013-01-26 09:42:00,
2013-01-26 03:52:00,35.0,-99.9,30.21,NE,50,6.0,15.0,0,-99.99,,,-99.99,,2013-01-26 09:52:00,
2013-01-26 04:02:00,35.0,-99.9,30.22,NNE,20,6.0,11.0,0,-99.99,,,-99.99,,2013-01-26 10:02:00,
2013-01-26 04:12:00,34.0,-99.9,30.22,NNE,25,5.0,10.0,0,-99.99,,,-99.99,,2013-01-26 10:12:00,
2013-01-26 04:21:00,34.0,-99.9,30.22,NNE,25,5.0,10.0,0,-99.99,,,-99.99,,2013-01-26 10:21:00,
2013-01-26 05:12:00,32.0,-99.9,30.22,ENE,60,5.0,15.0,-999,-99.99,,,-99.99,,2013-01-26 11:12:00,
2013-01-26 05:22:00,32.0,-99.9,30.22,ENE,60,5.0,15.0,-999,-99.99,,,-99.99,,2013-01-26 11:22:00,
2013-01-26 05:32:00,31.0,-99.9,30.23,ENE,60,7.0,11.0,-999,-99.99,,,-99.99,,2013-01-26 11:32:00,
2013-01-26 05:42:00,31.0,-99.9,30.24,NE,40,6.0,12.0,-999,-99.99,,,-99.99,,2013-01-26 11:42:00,
2013-01-26 05:52:00,31.0,-99.9,30.24,NE,40,6.0,12.0,-999,-99.99,,,-99.99,,2013-01-26 11:52:00,
2013-01-26 06:02:00,30.0,-99.9,30.25,NNE,30,6.0,10.0,-999,-99.99,,,-99.99,,2013-01-26 12:02:00,
2013-01-26 06:12:00,30.0,-99.9,30.25,NNE,30,6.0,11.0,-999,-99.99,,,-99.99,,2013-01-26 12:12:00,
2013-01-26 06:23:00,30.0,-99.9,30.25,NNE,30,6.0,11.0,-999,-99.99,,,-99.99,,2013-01-26 12:23:00,
2013-01-26 06:33:00,29.0,-99.9,30.26,NNE,30,7.0,12.0,-999,-99.99,,,-99.99,,2013-01-26 12:33:00,
2013-01-26 06:42:00,29.0,-99.9,30.28,NNE,20,7.0,10.0,-999,-99.99,,,-99.99,,2013-01-26 12:42:00,
2013-01-26 06:53:00,29.0,-99.9,30.28,NNE,20,7.0,10.0,-999,-99.99,,,-99.99,,2013-01-26 12:53:00,
2013-01-26 07:04:00,29.0,-99.9,30.28,ENE,60,7.0,9.0,-999,-99.99,,,-99.99,,2013-01-26 13:04:00,
2013-01-26 07:12:00,29.0,-99.9,30.28,NE,45,5.0,9.0,-999,-99.99,,,-99.99,,2013-01-26 13:12:00,
2013-01-26 07:22:00,29.0,-99.9,30.28,NE,45,5.0,9.0,-999,-99.99,,,-99.99,,2013-01-26 13:22:00,
2013-01-26 07:42:00,28.0,-99.9,30.30,NE,55,4.0,6.0,-999,-99.99,,,-99.99,,2013-01-26 13:42:00,
2013-01-26 07:53:00,28.0,-99.9,30.30,NE,55,4.0,6.0,-999,-99.99,,,-99.99,,2013-01-26 13:53:00,
2013-01-26 08:03:00,27.0,-99.9,30.30,ENE,60,7.0,9.0,-999,-99.99,,,-99.99,,2013-01-26 14:03:00,
2013-01-26 08:12:00,27.0,-99.9,30.30,ENE,65,7.0,10.0,-999,-99.99,,,-99.99,,2013-01-26 14:12:00,
2013-01-26 08:22:00,27.0,-99.9,30.30,ENE,65,7.0,10.0,-999,-99.99,,,-99.99,,2013-01-26 14:22:00,
2013-01-26 08:32:00,27.0,-99.9,30.31,ENE,70,7.0,10.0,-999,-99.99,,,-99.99,,2013-01-26 14:32:00,
2013-01-26 08:43:00,27.0,-99.9,30.31,NE,55,7.0,12.0,-999,-99.99,,,-99.99,,2013-01-26 14:43:00,
2013-01-26 08:53:00,27.0,-99.9,30.31,NE,55,7.0,12.0,-999,-99.99,,,-99.99,,2013-01-26 14:53:00,
2013-01-26 09:03:00,27.0,-99.9,30.32,East,80,8.0,12.0,-999,-99.99,,,-99.99,,2013-01-26 15:03:00,
2013-01-26 10:03:00,27.0,-99.9,30.34,East,95,4.0,9.0,-999,-99.99,,,-99.99,,2013-01-26 16:03:00,
2013-01-26 10:13:00,27.0,-99.9,30.35,NE,55,4.0,8.0,0,-99.99,,,-99.99,,2013-01-26 16:13:00,
2013-01-26 10:22:00,27.0,-99.9,30.35,NE,55,4.0,8.0,0,-99.99,,,-99.99,,2013-01-26 16:22:00,
2013-01-26 10:33:00,28.0,-99.9,30.35,East,95,5.0,7.0,0,-99.99,,,-99.99,,2013-01-26 16:33:00,
2013-01-26 10:43:00,28.0,-99.9,30.35,NE,35,3.0,10.0,0,-99.99,,,-99.99,,2013-01-26 16:43:00,
2013-01-26 10:53:00,28.0,-99.9,30.35,NE,35,3.0,10.0,0,-99.99,,,-99.99,,2013-01-26 16:53:00,
2013-01-26 11:03:00,28.0,-99.9,30.36,NE,45,4.0,6.0,-999,-99.99,,,-99.99,,2013-01-26 17:03:00,
2013-01-26 11:13:00,29.0,-99.9,30.36,East,95,0.0,6.0,-999,-99.99,,,-99.99,,2013-01-26 17:13:00,
2013-01-26 11:23:00,29.0,-99.9,30.36,East,95,0.0,6.0,-999,-99.99,,,-99.99,,2013-01-26 17:23:00,
2013-01-26 11:33:00,30.0,-99.9,30.36,North,350,1.0,9.0,-999,-99.99,,,-99.99,,2013-01-26 17:33:00,
2013-01-26 11:42:00,30.0,-99.9,30.36,East,95,0.0,5.0,-999,-99.99,,,-99.99,,2013-01-26 17:42:00,
2013-01-26 11:53:00,30.0,-99.9,30.36,East,95,0.0,5.0,-999,-99.99,,,-99.99,,2013-01-26 17:53:00,
2013-01-26 12:03:00,31.0,-99.9,30.36,ENE,65,5.0,7.0,-999,-99.99,,,-99.99,,2013-01-26 18:03:00,
2013-01-26 12:12:00,31.0,-99.9,30.36,East,95,4.0,7.0,-999,-99.99,,,-99.99,,2013-01-26 18:12:00,
2013-01-26 12:22:00,31.0,-99.9,30.36,East,95,4.0,7.0,-999,-99.99,,,-99.99,,2013-01-26 18:22:00,
2013-01-26 12:33:00,33.0,-99.9,30.36,NNE,30,3.0,6.0,-999,-99.99,,,-99.99,,2013-01-26 18:33:00,
2013-01-26 12:42:00,32.0,-99.9,30.35,East,95,2.0,5.0,-999,-99.99,,,-99.99,,2013-01-26 18:42:00,
2013-01-26 12:53:00,32.0,-99.9,30.35,East,95,2.0,5.0,-999,-99.99,,,-99.99,,2013-01-26 18:53:00,
2013-01-26 13:03:00,34.0,-99.9,30.34,NE,35,3.0,7.0,-999,-99.99,,,-99.99,,2013-01-26 19:03:00,
2013-01-26 13:12:00,34.0,-99.9,30.34,East,95,2.0,8.0,-999,-99.99,,,-99.99,,2013-01-26 19:12:00,
2013-01-26 13:23:00,34.0,-99.9,30.34,East,95,2.0,8.0,-999,-99.99,,,-99.99,,2013-01-26 19:23:00,
2013-01-26 13:33:00,35.0,-99.9,30.33,North,10,3.0,5.0,-999,-99.99,,,-99.99,,2013-01-26 19:33:00,
2013-01-26 13:43:00,36.0,-99.9,30.32,NNE,30,5.0,6.0,-999,-99.99,,,-99.99,,2013-01-26 19:43:00,
2013-01-26 13:53:00,36.0,-99.9,30.32,NNE,30,5.0,6.0,-999,-99.99,,,-99.99,,2013-01-26 19:53:00,
2013-01-26 14:02:00,35.0,-99.9,30.31,ESE,110,1.0,8.0,-999,-99.99,,,-99.99,,2013-01-26 20:02:00,
2013-01-26 14:12:00,35.0,-99.9,30.31,SSW,210,3.0,7.0,-999,-99.99,,,-99.99,,2013-01-26 20:12:00,
2013-01-26 14:22:00,35.0,-99.9,30.31,SSW,210,3.0,7.0,-999,-99.99,,,-99.99,,2013-01-26 20:22:00,
2013-01-26 14:32:00,37.0,-99.9,30.29,East,95,3.0,9.0,-999,-99.99,,,-99.99,,2013-01-26 20:32:00,
2013-01-26 14:42:00,37.0,-99.9,30.29,ENE,60,4.0,9.0,-999,-99.99,,,-99.99,,2013-01-26 20:42:00,
2013-01-26 14:52:00,37.0,-99.9,30.29,ENE,60,4.0,9.0,-999,-99.99,,,-99.99,,2013-01-26 20:52:00,
2013-01-26 15:03:00,38.0,-99.9,30.28,ENE,70,5.0,11.0,-999,-99.99,,,-99.99,,2013-01-26 21:03:00,
2013-01-26 15:12:00,38.0,-99.9,30.29,NE,55,3.0,9.0,-999,-99.99,,,-99.99,,2013-01-26 21:12:00,
2013-01-26 15:23:00,38.0,-99.9,30.29,NE,55,3.0,9.0,-999,-99.99,,,-99.99,,2013-01-26 21:23:00,
2013-01-26 15:32:00,38.0,-99.9,30.29,SSW,200,4.0,7.0,-999,-99.99,,,-99.99,,2013-01-26 21:32:00,
2013-01-26 15:43:00,39.0,-99.9,30.29,SW,225,2.0,4.0,-999,-99.99,,,-99.99,,2013-01-26 21:43:00,
2013-01-26 15:52:00,39.0,-99.9,30.29,SW,225,2.0,4.0,-999,-99.99,,,-99.99,,2013-01-26 21:52:00,
2013-01-26 16:02:00,39.0,-99.9,30.28,WSW,245,0.0,7.0,-999,-99.99,,,-99.99,,2013-01-26 22:02:00,
2013-01-26 16:12:00,39.0,-99.9,30.28,ESE,120,4.0,7.0,-999,-99.99,,,-99.99,,2013-01-26 22:12:00,
2013-01-26 16:22:00,39.0,-99.9,30.28,ESE,120,4.0,7.0,-999,-99.99,,,-99.99,,2013-01-26 22:22:00,
2013-01-26 16:32:00,39.0,-99.9,30.28,SW,225,4.0,7.0,-999,-99.99,,,-99.99,,2013-01-26 22:32:00,
2013-01-26 16:42:00,39.0,-99.9,30.28,SE,125,3.0,6.0,-999,-99.99,,,-99.99,,2013-01-26 22:42:00,
2013-01-26 16:52:00,39.0,-99.9,30.28,SE,125,3.0,6.0,-999,-99.99,,,-99.99,,2013-01-26 22:52:00,
2013-01-26 17:02:00,39.0,-99.9,30.28,South,175,3.0,6.0,0,-99.99,,,-99.99,,2013-01-26 23:02:00,
2013-01-26 17:12:00,39.0,-99.9,30.28,SE,125,5.0,7.0,0,-99.99,,,-99.99,,2013-01-26 23:12:00,
2013-01-26 17:22:00,39.0,-99.9,30.28,SE,125,5.0,7.0,0,-99.99,,,-99.99,,2013-01-26 23:22:00,
2013-01-26 19:32:00,35.0,-99.9,30.29,SE,140,3.0,5.0,0,-99.99,,,-99.99,,2013-01-27 01:32:00,
2013-01-26 20:02:00,34.0,-99.9,30.28,SSE,160,4.0,10.0,0,-99.99,,,-99.99,,2013-01-27 02:02:00,
2013-01-26 20:12:00,34.0,-99.9,30.29,SE,135,4.0,9.0,-999,-99.99,,,-99.99,,2013-01-27 02:12:00,
2013-01-26 20:22:00,34.0,-99.9,30.29,SE,135,4.0,9.0,-999,-99.99,,,-99.99,,2013-01-27 02:22:00,
2013-01-26 20:32:00,33.0,-99.9,30.28,South,185,3.0,8.0,0,-99.99,,,-99.99,,2013-01-27 02:32:00,
2013-01-26 20:42:00,33.0,-99.9,30.28,SE,130,4.0,10.0,0,-99.99,,,-99.99,,2013-01-27 02:42:00,
2013-01-26 20:52:00,33.0,-99.9,30.28,SE,130,4.0,10.0,0,-99.99,,,-99.99,,2013-01-27 02:52:00,
2013-01-26 21:02:00,33.0,-99.9,30.28,SE,145,3.0,8.0,0,-99.99,,,-99.99,,2013-01-27 03:02:00,
2013-01-26 21:12:00,32.0,-99.9,30.28,South,175,3.0,7.0,-999,-99.99,,,-99.99,,2013-01-27 03:12:00,
2013-01-26 21:22:00,32.0,-99.9,30.28,South,175,3.0,7.0,-999,-99.99,,,-99.99,,2013-01-27 03:22:00,
2013-01-26 21:32:00,32.0,-99.9,30.28,SE,140,3.0,6.0,-999,-99.99,,,-99.99,,2013-01-27 03:32:00,
2013-01-26 21:42:00,32.0,-99.9,30.28,NE,55,2.0,6.0,0,-99.99,,,-99.99,,2013-01-27 03:42:00,
2013-01-26 21:52:00,32.0,-99.9,30.28,NE,55,2.0,6.0,0,-99.99,,,-99.99,,2013-01-27 03:52:00,
2013-01-26 22:02:00,32.0,-99.9,30.28,SE,140,2.0,5.0,-999,-99.99,,,-99.99,,2013-01-27 04:02:00,
2013-01-26 22:12:00,31.0,-99.9,30.28,SSE,165,1.0,6.0,-999,-99.99,,,-99.99,,2013-01-27 04:12:00,
2013-01-26 22:22:00,31.0,-99.9,30.28,SSE,165,1.0,6.0,-999,-99.99,,,-99.99,,2013-01-27 04:22:00,
2013-01-26 22:32:00,31.0,-99.9,30.28,SE,145,1.0,5.0,-999,-99.99,,,-99.99,,2013-01-27 04:32:00,
2013-01-26 22:42:00,31.0,-99.9,30.28,SSE,155,2.0,5.0,-999,-99.99,,,-99.99,,2013-01-27 04:42:00,
2013-01-26 22:52:00,31.0,-99.9,30.28,SSE,155,2.0,5.0,-999,-99.99,,,-99.99,,2013-01-27 04:52:00,
2013-01-26 23:04:00,31.0,-99.9,30.28,SSE,165,2.0,8.0,0,-99.99,,,-99.99,,2013-01-27 05:04:00,
2013-01-26 23:12:00,31.0,-99.9,30.28,ESE,120,3.0,6.0,-999,-99.99,,,-99.99,,2013-01-27 05:12:00,
2013-01-26 23:22:00,31.0,-99.9,30.28,ESE,120,3.0,6.0,-999,-99.99,,,-99.99,,2013-01-27 05:22:00,
2013-01-26 23:32:00,31.0,-99.9,30.28,South,175,3.0,8.0,-999,-99.99,,,-99.99,,2013-01-27 05:32:00,
2013-01-26 23:42:00,31.0,-99.9,30.28,SSE,150,3.0,9.0,-999,-99.99,,,-99.99,,2013-01-27 05:42:00,
2013-01-26 23:52:00,31.0,-99.9,30.28,SSE,150,3.0,9.0,-999,-99.99,,,-99.99,,2013-01-27 05:52:00,